Location: Mohawk View
(42.7837°N, 73.7885°W)
Time: 16:33:31
(UTC+00:00)

GP-B - Pass Details

Date: 17 June 2021
Orbit: 631 x 635 km, 89.8° (Epoch: 02 August)

Event Time Altitude Azimuth Distance (km) Brightness Sun altitude
Rises 04:22:48 0° 12° (NNE) 2,943 7.7 -23.4°
Reaches altitude 10° 04:25:15 10° 23° (NNE) 2,029 6.5 -23.4°
Maximum altitude 04:29:12 30° 85° (E) 1,130 4.3 -23.5°
Enters shadow 04:29:25 30° 91° (E) 1,134 4.3 -23.5°
